Regional Weather Roundup
Issued by NWS Burlington, VT

Home | Current Version | Previous Version | Text Only | Print | Product List | Glossary On
Versions: 1 2 3 4 5 6 7 8 9 10 11 12 13 14 15 16 17 18 19 20 21 22 23 24 25 26 27 28 29 30 31 32 33 34 35 36 37 38 39 40 41 42 43 44 45 46 47 48 49 50
000
ASUS41 KBTV 182130
RWRBTV
VERMONT REGIONAL WEATHER ROUNDUP
NATIONAL WEATHER SERVICE BURLINGTON VT
500 PM EDT THU SEP 18 2014

NOTE: "FAIR" INDICATES FEW OR NO CLOUDS BELOW 12,000 FEET WITH NO
SIGNIFICANT WEATHER AND/OR OBSTRUCTIONS TO VISIBILITY.

* THESE REPORTS ARE NOT UNDER NWS QUALITY CONTROL AND/OR DO NOT
  REPORT WEATHER SUCH AS PRECIPITATION AND FOG.

VTZ001>019-182200-
_____VERMONT_____


CITY           SKY/WX    TMP DP  RH WIND       PRES   REMARKS
BURLINGTON     MOCLDY    55  38  52 N8        30.11S
MONTPELIER     CLOUDY    50  39  66 N12       30.12R
MORRISVILLE    PTCLDY    51  36  56 NW5       30.10S
ST. JOHNSBURY*   N/A     52  39  61 MISG      30.06R
MIDDLEBURY*    CLOUDY    53  42  67 N8        30.09S
RUTLAND*       CLOUDY    54  43  66 NW8       30.07S
SPRINGFIELD    MOCLDY    62  47  57 W10G17    30.03R
HIGHGATE*      CLOUDY    52  35  50 N5        30.11R
NEWPORT*       FAIR      48  35  61 NW8       30.10R
BENNINGTON     MOCLDY    64  52  64 VRB6      30.02S
SUTTON*          N/A     48 N/A N/A MISG        N/A
GALLUP MILLS*    N/A     50 N/A N/A MISG        N/A
UNION VILLAGE*   N/A     57 N/A N/A MISG        N/A
MT. MANSFIELD*   N/A     37 N/A N/A NW13        N/A

_____LAKE CHAMPLAIN_____


CITY           SKY/WX    TMP DP  RH WIND       PRES   REMARKS
BURTON ISLAND*   N/A     55  37  50 NW1         N/A
COLCHESTER RF*   N/A     54  36  50 N15         N/A
DIAMOND ISL*     N/A     52  41  66 N13         N/A

$$

NYZ007-026>031-035-052-083-182200-
_____NORTHERN NEW YORK_____


CITY           SKY/WX    TMP DP  RH WIND       PRES   REMARKS
PLATTSBURGH    PTCLDY    54  38  54 NW9       30.11R
SARANAC LAKE   MOCLDY    49  36  61 N7        30.08S
MASSENA        CLEAR     52  34  50 N6        30.15R
OGDENSBURG*    CLEAR     54  36  50 N8        30.15R
POTSDAM*       PTCLDY    54  37  54 N12       30.14R
PARISHVILLE*     N/A     52 N/A N/A N5          N/A
WATERTOWN      PTCLDY    57  37  47 N10       30.12S
FT DRUM        PTCLDY    54  38  54 NE12      30.12R
ALBANY         PTCLDY    62  53  72 N12       30.03R
GLENS FALLS    CLOUDY    56  46  69 NE12      30.07R

$$
NHZ002-005-011-182200-
_____NEW HAMPSHIRE_____


CITY           SKY/WX    TMP DP  RH WIND       PRES   REMARKS
LEBANON        CLOUDY    60  43  53 N13G18    30.04R
KEENE          MOCLDY    64  45  48 N8        30.01R
MT WASHINGTON  FOG       28  28 100 NW47G58     N/A  VSB 1/16WCI  10
PLYMOUTH       FAIR      58  48  68 W10       30.04R
WHITEFIELD     PTCLDY    51  39  63 NW8       30.06R

$$

_____REGIONAL QUEBEC LOCATIONS_____


CITY           SKY/WX    TMP DP  RH WIND       PRES   REMARKS
MONTREAL       MOCLDY    54  30  40 NW10      30.13R
QUEBEC CITY    MOCLDY    48  28  46 N13G20    30.10
SHERBROOKE     MOCLDY    48  34  57 N7        30.09R

_____REGIONAL ONTARIO LOCATIONS_____


CITY           SKY/WX    TMP DP  RH WIND       PRES   REMARKS
OTTAWA         PTCLDY    52  30  43 N16G23    30.17R

______KEY______
VSB  - VISIBILITY IN MILES
WCI  - WIND CHILL INDEX
HX   - HEAT INDEX
$$



USA.gov is the U.S. government's official web portal to all federal, state and local government web resources and services.